Cloud_Cover
0 0 0 0 0 0 0 0 0 0 0 0 0 0 0 0 0 0 0 0 0 0 0 0 0 0 0 0 0 0 0 0 0 0 0 0 0 0 0 0 0 0 0 0 0 0 0 0 0 8 44 32 20 12 20 0 0 0 0 8 12 8 0 0 8 12 8 12 20 12 0 0 0 0 0 0 0 0 0 0 0 0 0 0 0 0 0 0 0 0 0 0 0 0 0 0 0 8 24 8 0 0 0
0 0 0 0 0 0 0 0 0 0 0 0 0 0 0 0 0 0 0 0 0 0 0 0 0 0 0 0 0 0 0 0 0 0 0 0 0 0 0 0 0 0 0 0 0 0 0 0 0 20 88 80 44 8 8 0 0 0 20 24 48 56 0 0 0 8 12 12 8 0 0 0 0 0 0 0 0 0 0 0 0 0 0 0 0 0 0 0 0 0 0 0 0 0 0 0 0 0 8 0 0 0 0
0 0 0 0 0 0 0 0 0 0 0 0 0 0 0 0 0 0 0 0 0 0 0 0 0 0 0 0 0 0 0 0 0 0 0 0 0 0 0 0 0 0 0 0 0 0 0 0 0 0 12 56 44 20 0 32 56 68 80 80 88 80 24 8 0 0 0 0 0 0 0 0 0 0 0 0 0 0 0 0 0 0 0 0 0 0 0 0 0 0 0 0 0 0 0 0 0 0 0 0 0 0 0
0 0 0 0 0 0 0 0 0 0 0 0 0 0 0 0 0 0 0 0 0 0 0 0 0 0 0 0 0 0 0 0 0 0 0 0 0 0 0 0 0 0 0 0 0 0 0 0 0 0 0 12 20 20 32 48 76 88 80 64 32 8 0 0 0 0 0 0 0 0 0 0 0 0 0 0 0 0 0 0 0 0 0 0 0 0 0 0 0 0 0 0 0 0 0 0 0 0 20 8 0 0 0
0 0 0 0 0 0 0 0 0 0 0 0 0 0 0 0 0 0 0 0 0 0 0 0 0 0 0 0 0 0 0 0 0 0 0 0 0 0 0 0 0 0 0 0 0 0 0 0 0 0 0 0 0 0 20 36 44 36 8 0 0 0 0 0 0 0 0 0 0 0 0 0 0 0 0 0 0 0 0 0 0 0 0 0 0 0 0 0 0 0 0 0 0 0 0 0 0 0 0 0 0 0 0
0 0 0 0 0 0 0 0 0 0 0 0 0 0 0 0 0 0 0 0 0 0 0 0 0 0 0 0 0 0 0 0 0 0 0 0 0 0 0 0 0 0 0 0 0 0 0 0 0 0 0 0 0 0 0 0 0 0 0 0 0 0 0 0 0 0 0 0 0 0 0 0 0 0 0 0 0 0 0 0 0 0 0 0 0 0 0 0 0 0 0 0 0 0 0 0 0 0 0 0 0 0 0
0 0 0 0 0 0 0 0 0 0 0 0 0 0 0 0 0 0 0 0 0 0 0 0 0 0 0 0 0 0 0 0 0 0 0 0 0 0 0 0 0 0 0 0 0 0 0 0 0 0 0 0 0 0 0 0 0 0 0 0 0 0 0 8 0 0 0 0 0 0 0 0 0 0 0 0 0 0 0 0 0 0 0 0 0 0 0 0 0 0 0 0 0 0 0 0 0 0 0 0 0 0 0
0 0 0 0 0 0 0 0 0 0 0 0 0 0 0 0 0 0 0 0 0 0 0 0 0 0 0 0 0 0 0 0 0 0 0 0 0 0 0 0 0 0 0 0 0 0 0 0 0 0 0 0 0 0 0 0 0 0 0 0 0 0 8 0 0 0 0 0 0 0 0 0 0 0 0 0 0 0 0 0 0 0 0 0 0 0 0 0 0 0 0 0 0 0 0 0 0 0 0 0 0 0 0
0 0 0 0 0 0 0 0 0 0 0 0 0 0 0 0 0 0 0 0 0 0 0 0 0 0 0 0 0 0 0 0 0 0 0 0 0 0 0 0 0 0 0 0 0 0 0 0 0 0 0 0 0 0 0 0 0 0 0 0 0 0 0 8 8 0 0 0 0 0 0 0 0 0 0 0 0 0 0 0 0 0 0 0 0 0 0 0 0 0 0 0 0 0 0 0 0 0 0 0 0 0 0
0 0 0 0 0 0 0 0 0 0 0 0 0 0 0 0 0 0 0 0 0 0 0 0 0 0 0 0 0 0 0 0 0 0 0 0 0 0 0 0 0 0 0 0 0 0 0 0 0 0 0 0 0 0 0 0 0 0 0 0 0 0 0 0 0 0 0 0 0 0 0 0 0 0 0 0 0 0 0 0 0 0 0 0 0 0 0 0 0 0 0 0 0 0 0 0 0 0 0 0 0 0 0
0 0 0 0 0 0 0 0 0 0 0 0 0 0 0 0 0 0 0 0 0 0 0 0 0 0 0 0 0 0 0 0 0 0 0 0 0 0 0 0 0 0 0 0 0 0 0 0 0 0 0 0 0 0 0 0 0 0 0 0 0 0 0 0 0 0 0 0 0 0 0 0 0 0 0 0 0 0 0 0 0 0 0 0 0 0 0 0 0 0 0 0 0 0 0 0 0 0 0 0 0 0 0
0 0 0 0 0 0 0 0 0 0 0 0 0 0 0 0 0 0 0 0 0 0 0 0 0 0 0 0 0 0 0 0 0 0 0 0 0 0 0 8 8 0 0 0 0 0 0 0 0 0 0 0 0 0 0 0 0 0 0 0 0 0 0 0 0 8 0 0 0 0 8 0 0 0 0 0 0 0 0 0 0 0 0 0 0 0 0 0 0 0 0 0 0 0 0 0 0 0 0 0 0 0 0
0 0 0 0 0 0 0 0 0 0 0 0 0 0 0 0 0 0 0 0 0 0 0 0 0 0 0 0 0 0 0 0 0 0 0 0 0 0 0 8 8 8 0 0 0 0 0 0 0 0 0 0 0 0 0 0 0 0 0 0 0 0 0 0 0 0 0 0 0 12 24 8 0 0 0 0 0 0 0 0 0 0 0 0 0 0 0 0 0 0 0 0 8 8 0 0 0 0 0 0 0 0 0
0 0 0 0 0 0 0 0 0 0 0 0 0 0 0 0 0 0 0 0 0 0 0 0 0 0 0 0 0 0 0 0 0 0 0 0 0 8 8 8 8 8 8 0 0 0 0 0 0 0 0 0 0 0 0 0 0 0 0 0 12 12 0 0 0 0 0 0 8 12 24 20 12 8 0 0 0 0 0 0 0 0 0 0 0 0 0 0 0 8 8 8 8 8 0 0 0 0 0 0 0 0 0
0 0 0 0 8 8 0 0 0 0 0 0 0 0 0 0 0 0 0 0 0 0 0 0 0 0 0 0 0 0 0 0 0 0 0 0 8 8 8 8 8 8 8 0 0 0 0 0 0 0 0 0 0 0 0 0 0 0 0 0 8 8 0 0 0 8 8 0 8 12 24 24 24 20 8 8 8 0 0 0 0 0 0 0 0 0 0 0 8 8 8 0 0 0 0 0 0 0 0 0 0 0 0
0 8 8 8 8 8 8 8 0 0 0 0 0 0 0 0 0 0 0 0 0 0 0 0 0 0 0 0 0 0 0 0 0 0 0 0 0 0 0 0 0 0 0 0 0 0 0 0 0 0 0 0 0 0 0 0 0 0 0 0 0 0 0 0 0 8 20 12 8 8 12 24 32 32 20 12 8 8 0 0 0 0 0 0 0 0 0 0 8 8 0 0 0 0 0 0 0 0 0 0 0 0 0
0 0 8 8 8 8 8 8 8 8 8 8 8 8 0 0 0 0 0 0 0 0 0 0 0 0 0 0 0 0 0 0 0 0 0 0 0 0 0 0 0 0 0 0 0 0 0 0 0 0 0 0 0 0 0 0 0 0 0 0 0 0 0 0 0 0 8 12 12 8 12 36 44 36 32 20 12 8 8 8 8 0 0 0 0 0 0 0 0 0 0 0 0 0 0 0 0 0 0 0 0 0 0
0 8 8 8 8 8 8 8 8 8 8 8 8 8 8 0 0 0 0 0 0 0 0 0 0 0 0 0 0 0 0 0 0 0 0 0 0 0 0 0 0 0 0 0 0 0 0 0 0 0 0 0 0 0 0 0 0 0 0 0 0 0 0 0 0 0 0 0 0 8 12 32 36 44 44 32 20 12 8 8 8 8 0 0 0 0 0 0 0 0 0 0 0 0 0 0 0 0 0 0 0 0 0
0 8 8 8 8 8 8 12 12 12 12 8 8 8 8 8 8 0 0 0 0 0 0 0 0 0 0 0 0 0 0 0 0 0 0 0 0 0 0 0 0 0 0 0 0 0 0 0 0 0 0 0 0 0 0 0 0 0 0 0 0 0 0 0 0 0 0 0 0 0 8 24 44 56 56 48 32 12 8 8 8 8 0 0 0 0 0 0 0 0 0 0 0 0 0 0 0 0 0 0 0 0 0
0 8 8 8 8 8 8 12 12 12 12 12 8 8 8 8 8 8 8 0 0 0 0 0 0 0 0 0 0 0 0 0 8 8 8 8 0 0 0 0 0 0 0 0 0 0 0 0 0 0 0 0 0 0 0 0 0 0 0 0 0 0 0 0 0 0 0 0 0 0 0 20 36 48 64 64 44 24 8 0 0 0 0 0 0 0 0 0 0 0 0 0 0 0 0 0 0 0 0 0 0 0 0
0 8 8 8 8 8 8 8 12 12 8 8 8 8 8 8 8 8 8 8 0 0 0 0 0 0 8 8 8 8 8 8 8 8 8 8 8 0 0 0 0 0 0 0 0 0 0 0 0 0 0 0 0 0 0 0 0 0 0 0 0 0 0 0 0 0 0 0 0 0 0 8 32 48 56 64 48 32 24 8 0 0 0 0 0 0 0 0 0 0 0 0 0 0 0 0 0 0 0 0 0 0 0
8 8 8 8 8 8 8 12 12 12 12 8 8 8 8 8 8 8 8 8 8 0 0 0 0 8 8 8 8 8 8 8 8 8 8 8 8 0 0 0 0 0 0 0 0 0 0 0 0 0 0 0 0 0 0 0 0 0 0 0 0 0 0 0 0 0 0 0 0 0 0 0 20 36 32 32 36 44 24 20 8 0 0 0 0 0 0 0 0 0 0 0 0 0 0 0 0 0 0 0 0 0 0
8 8 8 8 8 8 8 12 12 12 12 8 8 8 8 8 8 8 8 8 8 0 0 8 8 8 8 8 8 12 8 8 8 8 8 8 0 0 0 0 0 0 0 0 0 0 0 0 0 0 0 0 0 0 0 0 0 0 0 0 0 0 0 0 0 0 0 0 0 0 0 8 8 12 8 8 12 24 36 36 20 0 0 0 0 0 0 8 8 0 0 0 0 0 0 0 0 0 0 0 0 0 0
12 8 8 8 8 8 8 12 12 8 12 20 12 8 8 12 12 12 8 8 8 8 0 0 8 8 8 8 8 12 8 8 8 8 8 8 0 0 0 0 0 0 0 0 0 0 0 0 0 0 0 0 0 0 0 0 0 0 0 0 0 0 0 0 0 0 0 0 0 0 0 0 0 0 0 0 0 8 36 36 32 12 0 0 0 0 0 20 20 12 0 0 0 0 0 0 0 0 0 0 0 0 0
12 12 8 8 8 12 12 12 12 12 12 24 20 8 8 12 12 20 12 8 8 8 0 0 0 0 8 8 8 8 8 8 8 8 0 8 0 0 0 0 0 0 0 0 0 0 0 0 0 0 0 0 0 0 0 0 0 0 0 0 0 0 0 0 0 0 0 0 0 0 0 0 0 0 0 0 0 0 8 24 32 24 0 0 0 0 0 24 32 24 0 0 0 0 0 0 0 0 0 0 0 0 0
12 12 12 8 8 8 8 12 12 12 12 12 12 12 8 8 8 12 12 8 8 8 8 0 0 0 8 8 8 8 8 8 8 0 0 0 0 8 8 0 0 0 0 0 0 0 0 0 0 0 0 0 0 0 0 0 0 0 0 0 0 0 0 0 0 0 0 0 0 0 0 0 0 0 0 0 0 0 0 0 20 32 0 0 0 0 0 8 24 36 12 8 0 0 0 0 0 0 0 0 0 0 0
12 8 8 8 8 8 8 8 8 12 12 12 12 12 12 8 8 8 8 8 0 0 0 0 0 8 8 8 8 8 8 8 8 8 8 0 0 8 8 8 0 0 0 0 0 0 0 0 0 0 0 0 0 0 0 0 0 0 0 0 0 0 0 0 0 0 0 0 0 0 0 0 0 0 0 0 0 0 0 0 12 12 0 0 0 8 12 8 36 48 20 12 8 0 0 0 0 0 0 0 0 0 0
12 8 8 12 12 12 12 8 8 12 12 8 8 8 8 8 8 8 8 8 8 8 0 8 8 0 8 8 8 8 8 8 8 8 8 0 0 0 0 0 0 0 0 0 0 0 0 0 0 0 0 0 0 0 0 0 0 0 0 0 0 0 0 0 0 0 0 0 0 0 0 0 0 0 0 0 0 8 8 0 12 20 20 24 36 44 36 36 64 80 76 24 0 0 0 0 0 0 0 0 0 0 0
12 8 12 12 12 12 12 12 12 12 12 12 8 8 8 8 8 8 8 8 8 8 8 8 0 0 0 8 8 8 8 8 8 8 8 0 0 0 0 0 0 0 0 0 0 0 0 0 0 0 0 0 0 0 0 0 0 0 0 0 0 0 0 0 0 0 0 0 0 0 0 0 0 0 0 0 0 0 8 0 0 0 8 0 24 48 32 8 48 92 92 32 8 0 0 0 0 0 0 0 0 0 0
12 12 12 12 12 12 12 12 12 12 12 12 8 8 8 8 8 8 0 8 8 8 8 8 8 8 8 8 8 8 8 8 8 8 8 0 0 0 0 0 0 0 0 0 0 0 0 0 0 0 0 0 0 0 0 0 0 0 0 0 0 0 0 0 0 0 0 0 0 0 0 0 0 0 0 0 0 0 0 0 0 0 0 0 12 12 0 0 12 48 92 24 0 0 0 0 0 0 0 0 0 0 0
12 8 8 12 12 12 12 12 12 12 12 12 12 8 8 0 0 0 0 0 0 0 8 8 8 8 8 8 8 8 12 8 8 8 8 8 8 0 0 0 0 0 0 0 0 8 0 0 0 0 0 0 0 0 0 0 0 0 0 0 0 0 0 0 0 0 0 0 0 0 0 0 0 0 0 0 0 0 0 0 0 0 0 0 8 8 0 0 48 92 88 24 0 0 0 8 8 0 0 0 0 0 0
8 8 8 12 12 12 20 20 12 12 12 12 12 8 8 8 8 0 0 0 0 0 0 8 8 8 8 8 8 8 12 12 8 8 8 8 8 8 8 8 8 8 8 8 8 8 8 8 8 8 0 8 0 0 0 0 0 0 0 0 0 0 0 0 0 0 0 0 0 0 0 0 0 0 0 0 0 0 0 0 0 0 0 0 0 0 0 0 0 0 0 48 56 36 20 24 20 8 0 0 0 0 0
8 8 8 8 12 12 20 20 20 12 12 8 8 8 8 8 8 8 0 0 0 0 0 8 8 8 8 8 8 12 12 12 8 8 0 0 0 8 8 8 8 8 8 12 12 8 8 8 8 8 8 0 0 0 0 0 0 0 0 0 0 0 0 0 0 0 0 0 0 0 0 0 0 0 0 0 0 0 0 0 0 0 0 0 0 0 0 0 0 0 8 36 56 64 44 36 32 20 0 0 0 0 8
8 8 8 8 12 12 12 20 20 20 20 12 8 8 8 8 8 8 8 8 0 0 0 0 8 8 8 8 8 12 12 8 8 8 8 8 0 0 0 0 8 8 12 8 8 8 8 8 12 8 8 0 0 0 0 0 0 0 0 0 0 0 0 0 0 0 0 0 0 0 0 0 0 0 0 0 0 0 0 0 0 0 12 8 0 0 0 0 0 8 44 64 80 88 64 24 20 20 8 0 8 12 24
8 8 8 8 12 12 12 20 20 20 20 12 8 8 8 8 8 8 8 8 8 8 8 8 8 8 0 0 8 8 12 12 8 8 8 8 8 0 0 0 0 0 8 0 0 0 8 8 8 8 0 0 0 0 0 0 0 0 0 0 0 0 0 8 12 20 8 0 0 0 0 0 0 0 0 0 0 0 0 0 0 0 12 12 12 8 0 0 0 0 12 48 76 80 68 44 36 32 12 20 24 32 44
8 8 8 8 8 12 12 12 20 20 20 12 12 8 8 8 8 8 8 8 8 12 12 8 8 0 0 0 0 0 8 8 8 8 8 8 8 8 8 8 8 0 0 0 0 0 0 0 8 8 0 0 0 0 0 0 0 0 8 8 0 0 0 0 20 36 32 12 0 0 0 0 0 0 8 8 8 0 8 8 8 8 12 20 20 12 8 0 0 8 8 8 20 36 48 48 48 56 64 56 44 36 56
8 8 8 8 8 12 12 12 12 20 20 12 12 8 8 8 8 8 8 12 12 12 12 12 8 8 8 0 0 0 0 0 0 8 8 8 8 8 8 8 8 8 8 8 0 0 0 0 0 0 0 0 0 0 0 0 0 8 12 8 8 0 0 0 20 44 36 12 0 0 0 0 8 12 36 48 36 20 12 20 20 20 24 24 20 12 0 0 12 12 0 8 8 12 20 32 44 68 88 88 80 76 64
8 12 12 12 12 12 12 12 12 12 12 12 12 8 8 8 8 8 8 12 20 20 12 12 8 0 0 0 0 0 0 0 0 0 0 0 0 0 0 0 8 8 8 8 0 0 0 0 0 0 0 0 0 0 0 0 8 12 8 12 8 0 8 12 44 56 20 8 0 0 8 8 8 12 44 76 68 44 32 24 24 24 32 24 20 12 0 0 8 8 0 8 8 8 8 8 24 48 80 88 88 92 92
12 20 24 20 20 12 12 20 12 12 12 12 12 12 12 12 12 12 20 20 20 20 12 12 8 0 0 0 0 0 0 0 0 0 8 8 0 0 0 0 0 0 0 0 0 0 0 0 0 0 0 0 0 0 0 12 12 8 0 8 8 8 12 56 80 68 8 0 0 8 12 8 8 8 12 48 68 68 56 36 32 32 32 24 20 12 8 0 0 0 0 8 8 8 8 8 8 20 64 56 64 76 88
20 24 24 32 24 12 12 20 20 12 12 20 20 20 20 24 24 32 32 24 20 12 8 8 0 0 0 0 0 0 8 8 8 8 8 8 0 0 0 0 0 0 0 0 0 0 0 0 8 8 8 8 8 8 8 12 12 8 0 0 0 0 0 64 76 48 12 8 12 12 20 8 0 0 0 12 44 64 44 32 32 24 20 12 12 8 0 0 0 8 8 8 8 8 0 0 0 0 0 8 24 44 56
32 32 32 36 24 12 12 12 12 20 20 24 24 24 32 36 36 36 32 24 20 8 0 0 0 0 0 0 0 8 8 8 8 8 8 0 0 0 0 0 0 0 8 8 8 8 8 8 20 32 24 20 12 12 12 12 8 8 0 0 0 0 0 24 32 24 20 20 24 24 24 20 12 8 12 8 20 24 24 20 12 12 0 8 0 0 0 8 8 8 8 8 8 0 0 0 0 0 0 0 0 8 32
32 32 24 24 24 20 12 12 12 20 32 32 32 32 44 44 44 36 32 24 20 8 0 0 0 0 0 0 0 8 8 8 8 8 8 0 0 0 0 0 0 0 8 8 12 12 20 24 32 32 32 24 20 20 20 12 8 8 0 0 0 0 0 0 0 8 12 36 48 48 36 32 32 32 24 20 20 12 12 8 8 8 8 0 0 0 8 8 8 8 8 0 0 0 0 0 0 0 0 0 0 0 8
32 24 24 20 20 20 12 20 20 24 32 32 32 36 44 36 36 36 24 20 12 8 0 0 0 0 0 8 8 8 8 8 12 20 12 8 0 0 0 0 12 20 20 32 32 36 36 44 36 24 24 24 20 20 20 12 12 12 8 8 8 0 0 8 8 12 20 36 64 76 64 48 44 36 32 24 20 12 8 8 8 8 8 8 0 0 8 8 8 8 0 0 0 0 0 0 0 0 0 0 0 0 0
32 32 24 24 24 24 24 24 32 36 36 36 36 36 36 32 32 32 24 12 8 0 0 0 0 0 8 8 12 12 12 12 20 32 32 24 20 20 20 20 32 36 32 32 32 24 32 36 32 20 20 20 12 12 12 12 12 12 12 8 8 8 8 12 12 12 20 44 56 68 88 64 48 44 36 24 20 8 8 0 0 0 0 0 0 0 8 8 8 8 0 0 0 0 0 0 0 0 0 0 0 0 0
36 32 32 32 32 32 32 36 36 44 44 36 36 32 32 32 24 24 24 12 8 0 8 8 8 8 8 8 8 8 8 8 36 64 56 56 44 36 44 36 32 24 20 12 12 8 12 12 12 12 12 12 12 12 12 12 12 12 12 8 8 12 12 12 20 20 20 56 56 48 56 48 44 44 36 24 12 0 0 0 0 0 0 0 0 0 8 8 8 8 0 0 0 0 0 0 0 0 0 0 0 0 0
44 44 44 44 44 44 44 44 44 44 36 36 32 32 32 24 24 24 20 8 0 0 8 8 8 8 8 8 8 8 8 8 44 88 88 76 56 36 36 36 32 20 20 20 12 12 12 12 12 12 8 12 12 12 8 8 8 8 8 8 8 12 12 20 20 20 12 44 48 44 32 24 32 36 24 20 8 0 0 0 0 0 0 0 0 0 8 8 8 8 8 0 0 0 0 0 0 0 0 0 0 0 0
48 56 56 56 48 48 56 48 48 44 36 36 32 32 24 24 24 20 20 12 8 8 0 0 0 0 0 0 0 0 0 8 36 76 88 68 48 36 32 32 24 24 24 24 24 24 24 24 24 20 12 8 8 8 0 0 8 8 8 8 8 8 12 12 12 12 12 20 32 32 20 32 36 36 20 8 0 0 12 0 0 0 0 0 0 0 8 8 8 8 8 8 0 0 0 0 0 0 0 0 0 0 0
64 68 76 68 64 56 56 48 44 44 36 32 32 32 24 24 24 20 20 12 12 12 8 0 0 0 0 0 0 0 0 12 20 44 80 64 48 32 24 20 20 24 24 32 32 32 32 24 24 20 12 8 8 8 8 0 0 0 8 0 0 0 0 0 0 0 0 8 12 20 12 36 36 20 8 0 0 12 24 12 8 8 0 0 0 0 8 8 8 8 12 8 0 0 0 0 0 0 0 0 0 0 0
68 68 68 64 56 48 44 44 44 36 36 36 36 32 32 32 32 24 24 24 20 12 8 8 0 0 0 0 0 0 8 8 12 24 56 56 48 32 20 12 12 12 12 24 24 32 24 20 12 8 8 8 8 8 8 8 8 0 0 0 0 0 0 0 0 0 0 8 12 12 8 12 12 12 8 8 12 20 32 24 20 20 12 8 0 0 8 12 12 12 12 8 8 0 0 8 8 8 0 8 8 8 8
68 64 64 48 44 44 36 36 36 36 32 32 32 32 32 32 32 32 32 20 20 12 12 8 0 0 8 12 8 8 12 8 8 8 12 32 36 32 20 20 20 12 12 12 20 20 20 8 0 0 0 0 8 8 8 8 8 8 0 0 0 0 0 0 0 0 8 20 20 12 8 8 8 8 12 12 20 32 36 44 36 32 32 24 12 8 12 12 12 12 8 8 8 0 0 8 8 8 8 12 12 8 8
64 56 56 48 44 44 36 36 36 32 32 32 32 36 32 32 32 24 20 24 24 20 12 12 8 8 20 24 24 20 20 8 8 8 8 8 24 36 32 36 36 32 20 12 12 12 12 8 8 0 0 0 0 0 8 12 12 12 8 8 8 0 0 0 0 8 20 24 32 24 12 8 8 8 8 20 32 36 44 44 44 36 56 36 20 12 12 12 12 12 12 8 8 0 0 0 8 12 12 8 8 8 8
56 48 48 48 48 48 44 44 36 36 36 32 36 36 32 24 20 24 32 32 32 24 20 20 12 12 12 32 32 24 20 12 12 12 12 12 12 24 44 48 48 44 32 24 20 20 20 12 8 8 0 0 0 8 8 8 8 12 12 20 20 12 8 20 20 20 20 20 20 20 20 12 12 12 12 12 24 44 36 48 44 36 36 32 20 8 12 12 12 12 20 20 12 8 0 0 8 8 8 8 8 8 8
48 44 44 48 48 56 56 48 44 36 36 32 32 24 24 24 24 36 48 56 56 48 44 36 36 36 36 32 32 24 12 8 8 8 8 12 12 20 44 56 56 44 36 36 32 24 32 24 20 12 12 8 12 20 12 12 12 12 20 24 36 36 32 36 36 36 36 24 12 12 8 20 20 20 20 20 24 36 36 44 32 24 24 12 8 8 12 12 20 20 24 24 20 20 12 8 0 0 0 8 8 8 12
44 44 48 44 48 64 68 68 64 56 44 36 36 32 24 36 44 48 64 64 56 56 56 48 44 44 44 36 24 12 12 8 8 8 8 8 12 20 36 32 36 36 36 48 44 44 56 44 36 36 24 24 32 32 32 32 24 24 24 44 48 56 56 64 56 48 36 32 20 12 20 24 24 24 32 32 32 32 24 24 20 20 12 20 20 12 20 20 24 24 24 24 24 24 20 12 12 8 8 12 12 12 12
48 48 56 64 68 68 64 64 64 56 48 44 44 44 48 56 64 64 64 48 48 44 44 44 36 36 36 36 24 20 12 8 0 0 0 8 12 20 20 24 24 24 24 56 80 80 44 44 44 44 36 36 44 48 48 48 48 44 44 64 76 76 76 68 64 56 48 36 32 24 32 32 32 32 32 32 32 32 24 24 24 24 24 24 20 20 24 24 24 32 36 36 32 24 24 24 20 12 12 12 12 12 20
68 76 76 76 64 56 44 44 44 44 36 36 36 44 48 56 56 44 44 36 36 36 36 32 32 36 36 36 36 32 20 12 8 0 0 0 0 8 8 20 20 24 24 24 36 44 32 48 64 64 44 44 56 56 44 68 68 68 68 76 80 80 80 80 68 64 64 56 44 44 44 36 36 36 36 44 48 48 44 36 36 36 32 32 32 32 32 32 32 32 36 36 36 32 24 24 20 20 20 12 12 12 12
76 76 68 64 56 44 36 36 32 32 36 36 44 44 44 44 44 36 36 36 36 36 32 32 36 44 44 44 36 32 20 24 20 8 0 0 8 12 36 32 20 20 20 24 24 24 32 44 68 92 80 56 56 56 44 64 76 76 80 80 80 80 76 68 64 68 88 68 56 56 64 56 48 44 44 56 56 56 48 44 44 44 36 36 36 36 36 32 32 36 36 36 36 32 24 24 20 20 12 12 12 12 12
76 76 64 48 44 36 36 36 36 36 36 36 36 44 44 36 36 36 36 44 44 44 44 48 48 48 44 32 24 20 20 32 32 20 12 8 8 12 12 20 24 24 20 20 24 36 44 48 68 88 92 64 48 56 56 68 80 88 88 88 88 80 64 64 80 92 80 76 68 68 64 56 48 48 56 64 64 64 44 44 44 36 36 36 36 36 36 32 36 36 36 36 32 32 20 20 20 12 12 12 12 12 12
64 64 48 44 36 36 32 36 36 36 36 36 36 36 44 44 44 48 48 48 48 48 48 48 56 48 44 32 32 32 36 36 36 36 24 20 24 32 24 68 56 24 36 36 56 76 68 64 64 76 92 92 80 64 64 64 64 68 68 88 92 92 92 88 88 88 80 88 80 76 68 56 48 48 56 64 64 56 64 44 36 32 36 36 36 36 36 32 32 32 32 32 24 24 24 24 20 20 20 20 12 12 8
44 44 36 36 36 32 32 32 36 36 36 36 44 44 56 48 56 56 48 48 44 44 44 48 44 44 36 36 36 36 44 44 48 48 44 36 36 48 68 80 80 76 68 76 80 88 88 80 76 80 92 88 92 92 88 64 44 36 48 88 92 92 92 92 88 80 80 80 80 80 68 56 48 56 56 56 56 48 48 36 36 36 36 36 36 44 44 36 36 32 24 24 32 32 32 32 32 24 24 20 12 12 0
32 32 32 24 24 24 24 32 36 44 44 44 48 56 64 56 64 68 68 64 56 48 48 48 44 44 48 48 56 56 48 56 56 56 56 64 76 88 92 92 88 80 88 92 92 92 92 80 68 68 80 76 88 92 92 68 48 48 88 92 92 92 92 92 80 80 80 76 76 68 56 48 56 56 64 56 48 48 44 44 44 44 44 36 44 48 48 44 36 36 32 32 32 32 32 24 24 24 24 12 8 8 0